Hourly Data Report for September 22, 2017

All times are specified in Local Standard Time (LST). Add 1 hour to adjust for Daylight Saving Time where and when it is observed.

ST. PETERS
PRINCE EDWARD ISLAND

46°27'01.000" N
62°34'33.000" W
29.70 m
8300562
71310
ZSP

Download Data

Hourly Data (September 2017)
Hourly Data Report for September 22, 2017
Temp Definition
°C
Dew Point Temp Definition
°C
Rel Hum Definition
%
Wind Dir Definition
10's deg

Wind Spd Definition
km/h
Visibility Definition
km
Stn Press Definition
kPa
Hmdx Definition


Wind Chill Definition


Weather Definition


TIME
00:00 8.9 7.4 90 10 4   102.02     LegendNANA
01:00 7.5 6.5 93 12 3   102.03     LegendNANA
02:00 6.7 5.8 94 16 4   102.02     LegendNANA
03:00 6.6 5.9 95 0 1   102.05     LegendNANA
04:00 6.1 5.4 95 7 5   101.99     LegendNANA
05:00 5.2 4.5 95 10 3   102.01     LegendNANA
06:00 7.8 7.3 97 13 6   102.01     LegendNANA
07:00 7.1 6.6 97 12 1   102.05     LegendNANA
08:00 13.9 11.3 85 11 3   102.07     LegendNANA
09:00 15.0 10.3 73 2 7   102.04     LegendNANA
10:00 15.9 10.7 71 1 8   102.05     LegendNANA
11:00 17.3 10.3 64 3 3   101.99     LegendNANA
12:00 16.7 10.5 67 1 12   101.93     LegendNANA
13:00 16.7 10.4 66 36 12   101.89     LegendNANA
14:00 16.3 10.4 68 1 14   101.86     LegendNANA
15:00 17.3 8.4 56 2 10   101.79     LegendNANA
16:00 16.4 8.8 60 4 10   101.77     LegendNANA
17:00 16.0 10.1 68 6 7   101.74     LegendNANA
18:00 14.7 10.3 75 0 1   101.73     LegendNANA
19:00 13.3 9.8 79 15 7   101.72     LegendNANA
20:00 12.5 9.9 84 16 7   101.67     LegendNANA
21:00 12.0 9.8 87 15 8   101.62     LegendNANA
22:00 11.9 9.5 85 16 8   101.62     LegendNANA
23:00 11.4 9.6 88 15 8   101.62     LegendNANA

Notes on Data Quality.

Legend

  • E = Estimated
  • M = Missing
  • NA = Not Available
  • ‡ = Partner data that is not subject to review by the National Climate Archives
Date modified: